Regional Weather Roundup
Issued by NWS

Home | Current Version | Previous Version | Graphics & Text | Print | Product List | Glossary On
Versions: 1 2 3 4 5 6 7 8 9 10 11 12 13 14 15 16 17 18 19 20 21 22 23 24 25 26 27 28 29 30 31 32 33 34 35 36 37 38 39 40 41 42 43 44 45 46 47 48 49 50
450
ASUS43 KTOP 261508
RWRKS

WEATHER ROUNDUP FOR KANSAS
NATIONAL WEATHER SERVICE GOODLAND KS
1000 AM CDT WED APR 26 2017

NOTE:  "FAIR" INDICATES FEW OR NO CLOUDS BELOW 12,000 FEET WITH NO
SIGNIFICANT WEATHER AND/OR OBSTRUCTIONS TO VISIBILITY.

KSZ001>006-013>018-027>032-041>047-261600-
NORTHWEST KANSAS

CITY           SKY/WX    TMP DP  RH WIND       PRES   REMARKS
GOODLAND       CLOUDY    37  27  67 N24G31    29.79F WCI  26
HAYS           CLOUDY    39  28  64 NW20      29.76F WCI  29
HILL CITY      PTSUNNY   40  27  59 NW23      29.78F WCI  30
RUSSELL        CLOUDY    42  30  62 N23       29.73F
$$

KSZ061>065-074>080-084>089-261600-
SOUTHWEST KANSAS

CITY           SKY/WX    TMP DP  RH WIND       PRES   REMARKS
DODGE CITY     CLOUDY    43  29  57 N24G32    29.75R
ELKHART          N/A     41  25  53 N18         N/A
GARDEN CITY    CLOUDY    41  28  60 NW25      29.78F
GREAT BEND     CLOUDY    42  32  67 NW23      29.73F
PRATT          CLOUDY    39  30  69 N20G29    29.73R WCI  30
$$

KSZ066>073-081>083-090>101-261600-
SOUTHEAST KANSAS

CITY           SKY/WX    TMP DP  RH WIND       PRES   REMARKS
CHANUTE        LGT RAIN  44  39  82 N18G26    29.62S
COFFEYVILLE    LGT RAIN  45  40  82 N16G26    29.63R
HUTCHINSON     PTSUNNY   44  34  67 N20G26    29.69F
MEDICINE LODGE   N/A     44  33  65 N22G31    29.69F
NEWTON         CLOUDY    41  34  76 N24G31    29.69R
PARSONS        CLOUDY    45  40  82 N15G23    29.65R
WICHITA INTL   CLOUDY    44  36  73 N24G31    29.67S
WICHITA JABRA  CLOUDY    43  37  79 N17       29.68R
WICHITA MCCONL CLOUDY    43  35  72 N18G28    29.67R
WINFIELD       CLOUDY    44  39  82 N17G29    29.67F
$$

KSZ007>012-019>026-033>040-048>060-102>105-261600-
NORTHEAST KANSAS

CITY           SKY/WX    TMP DP  RH WIND       PRES   REMARKS
CONCORDIA      CLOUDY    40  32  73 NW16      29.72F WCI  31
EMPORIA        CLOUDY    43  37  79 N10G25    29.65F
LAWRENCE       CLOUDY    43  38  82 NW18G26   29.64S
MANHATTAN      CLOUDY    44  34  67 N12G23    29.68F
OLATHE IND     CLOUDY    42  39  89 NW20G28   29.62F
OLATHE EXE     CLOUDY    42  39  89 N15G25    29.61S
SALINA         CLOUDY    43  33  68 NW21      29.72S
TOPEKA BILLARD CLOUDY    43  37  79 NW13      29.65S
TOPEKA FORBES  CLOUDY    44  35  70 NW16G23   29.65R
$$




USA.gov is the U.S. government's official web portal to all federal, state and local government web resources and services.